Regional Weather Roundup
Issued by NWS

Home | Current Version | Previous Version | Graphics & Text | Print | Product List | Glossary On
Versions: 1 2 3 4 5 6 7 8 9 10 11 12 13 14 15 16 17 18 19 20 21 22 23 24 25 26 27 28 29 30 31 32 33 34 35 36 37 38 39 40 41 42 43 44 45 46 47 48 49 50
000
ASUS43 KMPX 060310
RWRMN
WEATHER ROUNDUP FOR MINNESOTA
NATIONAL WEATHER SERVICE TWIN CITIES/CHANHASSEN MN
1000 PM CDT TUE MAY 05 2015


NOTE: "FAIR" INDICATES FEW OR NO CLOUDS BELOW 12,000 FEET WITH NO
SIGNIFICANT WEATHER AND/OR OBSTRUCTIONS TO VISIBILITY. N/A MEANS
CURRENT SKY AND/OR WEATHER CONDITIONS ARE NOT AVAILABLE.

MNZ060>063-068>070-060400-
   Twin Cities Metro

CITY           SKY/WX    TMP DP  RH WIND       PRES   REMARKS
TWIN CITIES    CLOUDY    57  54  89 SE9       30.14R
ST PAUL        CLOUDY    57  54  89 SE8       30.14S
CRYSTAL        CLOUDY    59  53  80 SE9       30.12R
BLAINE         CLOUDY    61  54  77 SE9       30.13R
LAKEVILLE      CLOUDY    54  52  94 SE8       30.14R
EDEN PRAIRIE   CLOUDY    56  53  90 SE13      30.12S
SOUTH ST PAUL  CLOUDY    57  54  89 SE6       30.14S
LAKE ELMO      LGT RAIN  57  52  82 SE9G17    30.15S
$$
MNZ001>005-007-008-013>017-022>024-027-028-060400-
   Northwest Minnesota

CITY           SKY/WX    TMP DP  RH WIND       PRES   REMARKS
BEMIDJI        MOCLDY    64  39  40 SE12      30.06R
HALLOCK        MOCLDY    68  18  14 SE12      29.96S
ROSEAU         MOCLDY    68  27  21 SE13      30.02S
WARROAD        MOCLDY    66  34  30 SE10      30.04R
THIEF RVR FALL PTCLDY    63  32  31 SE9       30.01R
CROOKSTON      FAIR      70  45  40 S15       29.99S
FOSSTON        MOCLDY    66  39  37 SE8       30.03S
DETROIT LAKES  MOCLDY    63  50  63 SE13      30.05R
MOORHEAD       PTCLDY    66  54  63 SE16      30.00S
PARK RAPIDS    CLOUDY    67  43  41 SE16      30.06R
MAHNOMEN       CLOUDY    65  46  49 S14       30.02S
$$
MNZ006-009>011-018-025>026-060400-
   North Central Minnesota

CITY           SKY/WX    TMP DP  RH WIND       PRES   REMARKS
BAUDETTE       PTCLDY    59  33  37 SE6       30.06R
FLAG ISLAND    PTCLDY    63  34  34 E3        30.03S
INTL FALLS     CLEAR     54  30  40 SE6       30.08R
WASKISH        FAIR      59  36  41 CALM      30.07R
BIG FORK       CLEAR     61  30  31 SE5       30.10R
LONGVILLE      PTCLDY    63  39  42 SE9       30.09R
GRAND RAPIDS   PTCLDY    63  28  27 SE12G17   30.12R
CRANE LAKE     CLEAR     48  32  53 SE3       30.14R
ORR            CLEAR     61  25  25 SE1       30.10R
COOK           CLEAR     61  28  29 SE9       30.14R
WALKER         CLOUDY    64  39  39 SE5       30.07R
$$
MNZ012-019>021-037-060400-
   Northeast Minnesota

CITY           SKY/WX    TMP DP  RH WIND       PRES   REMARKS
DULUTH         PTCLDY    52  27  38 E7        30.17R
ELY            CLEAR     55  23  28 SE8       30.17R
HIBBING        CLEAR     56  26  31 SE13      30.14R
EVELETH        CLEAR     54  27  35 E5        30.17R
DULUTH HARBOR  CLEAR     45  37  76 E9        30.19R
TWO HARBORS    FAIR      55  30  38 NE5       30.17R
SILVER BAY     CLEAR     54  27  35 N5        30.17S
GRAND MARAIS     N/A     50  30  46 NE8       30.20R
G MARAIS ARPRT PTCLDY    52  19  28 E6        30.22S
$$
MNZ029>031-032-039>041-046>048-054>057-064-060400-
   West Central Minnesota

CITY           SKY/WX    TMP DP  RH WIND       PRES   REMARKS
FERGUS FALLS   CLOUDY    64  54  68 SE13      30.03S
WHEATON        CLOUDY    59  52  77 SE21      30.03R
MORRIS         CLOUDY    61  54  77 SE18      30.04R
ALEXANDRIA     CLOUDY    62  52  69 SE20      30.08R
ELBOW LAKE     CLOUDY    62  53  73 SE17      30.04R
WADENA         CLOUDY    63  48  59 SE15      30.06S
GLENWOOD       CLOUDY    61  54  77 SE15      30.08R
APPLETON       CLOUDY    61  54  77 SE10G16   30.04S
BENSON         CLOUDY    61  52  72 S12G21    30.06R
ORTONVILLE     CLOUDY    61  54  77 SE13G20   30.02S
MADISON        CLOUDY    59  54  82 SE17      30.04R
WILLMAR        CLOUDY    59  55  88 SE16      30.09S
$$
MNZ033>034-036-042>043-049>051-058-059-060400-
   Central Minnesota

CITY           SKY/WX    TMP DP  RH WIND       PRES   REMARKS
ST CLOUD       LGT RAIN  61  52  72 SE16      30.10S
SAUK CENTRE    CLOUDY    62  52  70 SE12      30.09R
PAYNESVILLE    CLOUDY    57  52  84 E14       30.09S
AITKIN         CLOUDY    64  37  36 S12       30.10R
PINE RIVER     PTCLDY    64  43  45 SE10      30.12R
BRAINERD       CLOUDY    64  36  35 SE12      30.11R
STAPLES        CLOUDY    63  45  51 S10G16    30.08S
LONG PRAIRIE   CLOUDY    61  50  67 SE9       30.09S
LITTLE FALLS   CLOUDY    63  46  55 SE14      30.10R
LITCHFIELD     CLOUDY    57  55  94 SE12      30.11R
BUFFALO        CLOUDY    58  51  78 E13       30.13R
MAPLE LAKE     CLOUDY    60  55  82 E9G16     30.12S
$$
MNZ037-044-045-052-053-060400-
   East Central Minnesota

CITY           SKY/WX    TMP DP  RH WIND       PRES   REMARKS
PRINCETON      CLOUDY    64  43  45 E6        30.12S
MORA           CLOUDY    61  36  39 SE6       30.15S
CAMBRIDGE      MOCLDY    64  46  52 SE8       30.11F
RUSH CITY      CLOUDY    60  38  44 SE3       30.14S
MOOSE LAKE     CLOUDY    54  30  40 CALM      30.14R
HINCKLEY       CLOUDY    64  36  34 SE7       30.14S
CLOQUET        PTCLDY    52  28  40 E5        30.16S
MCGREGOR       CLOUDY    61  34  36 E7        30.13R
$$
MNZ071>073-080-081-089-090-097-098-060400-
   Southwest Minnesota

CITY           SKY/WX    TMP DP  RH WIND       PRES   REMARKS
MONTEVIDEO     CLOUDY    59  54  82 S15       30.06S
GRANITE FALLS  CLOUDY    58  53  84 SE17      30.08R
CANBY          CLOUDY    59  54  83 SE12G18   30.04R
MARSHALL       CLOUDY    57  50  77 SE14      30.04S
REDWOOD FALLS  CLOUDY    57  52  83 SE14      30.07R
OLIVIA         CLOUDY    54  50  87 SE16      30.08R
PIPESTONE      CLOUDY    61  57  88 SE15      30.02S
WINDOM         CLOUDY    55  54  94 E12G17    30.07R
WORTHINGTON    CLOUDY    57  54  88 SE14      30.06R
JACKSON        CLOUDY    55  54  94 SE14      30.09R FOG
TRACY          CLOUDY    59  56  89 SE12      30.06R
SLAYTON        CLOUDY    57  57  99 SE14      30.06R FOG
$$
MNZ065>067-074>077-082>085-091>093-060400-
   South Central Minnesota

CITY           SKY/WX    TMP DP  RH WIND       PRES   REMARKS
MANKATO        CLOUDY    55  52  88 SE15      30.10S
NEW ULM        CLOUDY    55  52  88 SE10      30.09S
ST JAMES       CLOUDY    57  54  88 E13       30.10R
FAIRMONT       CLOUDY    55  50  82 SE13G18   30.09R
GLENCOE        CLOUDY    56  55  93 E13       30.11R
FARIBAULT      CLOUDY    54  52  94 E8        30.13R
OWATONNA       CLOUDY    54  52  94 E15G21    30.12R
WASECA         CLOUDY    54  50  87 E16       30.12S
ALBERT LEA     CLOUDY    54  54 100 SE9       30.12S FOG
$$
MNZ078>079-086>088-094>096-060400-
   Southeast Minnesota

CITY           SKY/WX    TMP DP  RH WIND       PRES   REMARKS
ROCHESTER      CLOUDY    53  51  93 SE10      30.16R
RED WING       DRIZZLE   55  54  94 SE12      30.14F
STANTON        CLOUDY    56  52  86 E8        30.13R
DODGE CENTER   CLOUDY    54  52  94 SE14      30.14R
WINONA         CLOUDY    54  52  94 SE9       30.18S
AUSTIN         CLOUDY    54  52  94 SE12      30.13S FOG
PRESTON        CLOUDY    52  51  97 E10       30.16S FOG
$$
ABBREVIATIONS USED IN REMARKS
   TC - TEMPERATURES IN CELSIUS
  WCI - WIND CHILL INDEX
   HX - HEAT INDEX
  VSB - VISIBILITY
$$


USA.gov is the U.S. government's official web portal to all federal, state and local government web resources and services.